Time,TemperatureF,DewpointF,PressureIn,WindDirection,WindDirectionDegrees,WindSpeedMPH,WindSpeedGustMPH,Humidity,HourlyPrecipIn,Conditions,Clouds,dailyrainin,SoftwareType,DateUTC
2013-03-21 08:30:00,53.4,39.0,29.68,NW,315,16.8,17.9,58,0.20, MIFG BR,,-99.99,VWS V12.07,2013-03-21 07:30:00,
2013-03-21 08:40:00,53.8,38.5,29.68,NW,307,12.1,15.9,56,0.20,,SCT,-99.99,VWS V12.07,2013-03-21 07:40:00,
2013-03-21 08:45:00,54.0,38.2,29.68,NW,305,12.5,19.2,55,0.20,,SCT,-99.99,VWS V12.07,2013-03-21 07:45:00,
2013-03-21 08:50:00,54.3,38.5,29.68,NW,314,13.2,17.2,55,0.20,,SCT,-99.99,VWS V12.07,2013-03-21 07:50:00,
2013-03-21 08:55:00,54.3,37.1,29.68,WNW,302,20.1,20.1,52,0.20,,SCT,-99.99,VWS V12.07,2013-03-21 07:55:00,
2013-03-21 09:01:00,54.5,37.2,29.68,West,281,14.1,15.4,52,0.20,,SCT,-99.99,VWS V12.07,2013-03-21 08:01:00,
2013-03-21 09:20:00,55.2,35.9,29.71,North,10,7.8,16.8,48,0.00,,SCT,-99.99,VWS V12.07,2013-03-21 08:20:00,
2013-03-21 09:30:00,55.4,35.5,29.71,NNW,330,7.4,16.3,47,0.00,,SCT,-99.99,VWS V12.07,2013-03-21 08:30:00,
2013-03-21 09:41:00,55.9,35.5,29.71,NW,308,7.4,13.6,46,0.00,,SCT,-99.99,VWS V12.07,2013-03-21 08:41:00,
2013-03-21 09:50:00,56.7,36.1,29.71,WSW,251,7.4,9.8,46,0.00,,SCT,-99.99,VWS V12.07,2013-03-21 08:50:00,
2013-03-21 10:00:00,57.4,35.7,29.71,WSW,257,9.4,12.5,44,0.00,,SCT,-99.99,VWS V12.07,2013-03-21 09:00:00,
2013-03-21 10:10:00,57.2,34.3,29.71,West,267,6.5,9.4,42,0.00,,SCT,-99.99,VWS V12.07,2013-03-21 09:10:00,
2013-03-21 10:20:00,57.7,33.6,29.71,NW,322,11.6,11.6,40,0.00,,SCT,-99.99,VWS V12.07,2013-03-21 09:20:00,
2013-03-21 10:30:00,58.5,33.0,29.71,WNW,289,15.0,15.4,38,0.00,,SCT,-99.99,VWS V12.07,2013-03-21 09:30:00,
2013-03-21 10:40:00,58.3,32.8,29.71,West,261,8.3,15.9,38,0.00,,FEW,-99.99,VWS V12.07,2013-03-21 09:40:00,
2013-03-21 10:50:00,58.1,31.3,29.71,West,267,10.7,14.5,36,0.00,,FEW,-99.99,VWS V12.07,2013-03-21 09:50:00,
2013-03-21 11:00:00,58.6,31.1,29.71,WNW,296,6.0,13.2,35,0.00,,FEW,-99.99,VWS V12.07,2013-03-21 10:00:00,
2013-03-21 11:10:00,59.2,30.9,29.71,West,264,12.5,15.4,34,0.00,,FEW,-99.99,VWS V12.07,2013-03-21 10:10:00,
2013-03-21 11:20:00,58.8,30.5,29.71,West,273,15.9,17.9,34,0.00,,FEW,-99.99,VWS V12.07,2013-03-21 10:20:00,
2013-03-21 11:30:00,59.2,29.4,29.71,NW,314,16.8,16.8,32,0.00,,FEW,-99.99,VWS V12.07,2013-03-21 10:30:00,
2013-03-21 11:40:00,59.5,28.9,29.71,NNW,331,12.1,15.4,31,0.00,,FEW,-99.99,VWS V12.07,2013-03-21 10:40:00,
2013-03-21 11:50:00,60.3,27.9,29.71,NNW,335,10.7,16.3,29,0.00,,FEW,-99.99,VWS V12.07,2013-03-21 10:50:00,
2013-03-21 12:00:00,60.6,29.0,29.71,NW,318,11.6,14.5,30,0.00,,FEW,-99.99,VWS V12.07,2013-03-21 11:00:00,
2013-03-21 12:10:00,60.8,26.6,29.71,WNW,282,9.8,14.5,27,0.00,,FEW,-99.99,VWS V12.07,2013-03-21 11:10:00,
2013-03-21 12:20:00,61.0,26.8,29.71,West,268,10.7,16.3,27,0.00,,FEW,-99.99,VWS V12.07,2013-03-21 11:20:00,
2013-03-21 12:30:00,61.2,26.0,29.71,WSW,252,11.6,16.8,26,0.00,,FEW,-99.99,VWS V12.07,2013-03-21 11:30:00,
2013-03-21 12:40:00,62.2,27.0,29.71,WNW,295,4.5,14.5,26,0.00,,FEW,-99.99,VWS V12.07,2013-03-21 11:40:00,
2013-03-21 12:50:00,61.9,25.7,29.71,NW,315,11.2,15.0,25,0.00,,FEW,-99.99,VWS V12.07,2013-03-21 11:50:00,
2013-03-21 13:00:00,61.9,24.7,29.71,NW,315,12.1,17.7,24,0.00,,FEW,-99.99,VWS V12.07,2013-03-21 12:00:00,
2013-03-21 13:10:00,62.1,25.9,29.71,NW,310,17.2,18.3,25,0.00,,FEW,-99.99,VWS V12.07,2013-03-21 12:10:00,
2013-03-21 13:21:00,62.2,26.0,29.71,NNW,327,16.8,16.8,25,0.00,,FEW,-99.99,VWS V12.07,2013-03-21 12:21:00,
2013-03-21 13:30:00,62.4,26.2,29.71,NW,319,15.0,15.0,25,0.00,,FEW,-99.99,VWS V12.07,2013-03-21 12:30:00,
2013-03-21 13:40:00,62.2,26.0,29.71,WSW,237,6.0,18.3,25,0.00,,FEW,-99.99,VWS V12.07,2013-03-21 12:40:00,
2013-03-21 13:50:00,63.0,26.6,29.71,WNW,284,15.9,19.2,25,0.00,,FEW,-99.99,VWS V12.07,2013-03-21 12:50:00,
2013-03-21 14:00:00,63.0,26.6,29.71,WNW,298,10.7,12.1,25,0.00,,FEW,-99.99,VWS V12.07,2013-03-21 13:00:00,
2013-03-21 14:10:00,62.8,27.4,29.71,WNW,301,16.8,17.9,26,0.00,,FEW,-99.99,VWS V12.07,2013-03-21 13:10:00,
2013-03-21 14:20:00,63.1,26.8,29.71,WSW,252,11.2,21.0,25,0.00,,FEW,-99.99,VWS V12.07,2013-03-21 13:20:00,
2013-03-21 14:30:00,63.3,27.9,29.71,WNW,285,9.4,12.1,26,0.00,,FEW,-99.99,VWS V12.07,2013-03-21 13:30:00,
2013-03-21 14:40:00,63.7,27.2,29.71,WNW,286,9.4,15.9,25,0.00,,FEW,-99.99,VWS V12.07,2013-03-21 13:40:00,
2013-03-21 14:50:00,63.7,28.2,29.71,West,267,11.2,16.3,26,0.00,,FEW,-99.99,VWS V12.07,2013-03-21 13:50:00,
2013-03-21 15:00:00,64.0,27.5,29.71,West,270,9.8,18.3,25,0.00,,FEW,-99.99,VWS V12.07,2013-03-21 14:00:00,
2013-03-21 15:10:00,64.0,29.4,29.71,West,271,8.9,12.1,27,0.00,,FEW,-99.99,VWS V12.07,2013-03-21 14:10:00,
2013-03-21 15:20:00,63.7,27.2,29.71,WSW,255,13.2,16.3,25,0.00,,FEW,-99.99,VWS V12.07,2013-03-21 14:20:00,
2013-03-21 15:30:00,63.5,28.0,29.71,WNW,292,7.8,15.4,26,0.00,,FEW,-99.99,VWS V12.07,2013-03-21 14:30:00,
2013-03-21 15:40:00,63.7,27.2,29.71,NNW,341,6.9,15.4,25,0.00,,FEW,-99.99,VWS V12.07,2013-03-21 14:40:00,
2013-03-21 15:50:00,63.7,28.2,29.71,WNW,288,8.9,12.1,26,0.00,,FEW,-99.99,VWS V12.07,2013-03-21 14:50:00,
2013-03-21 16:00:00,63.9,28.3,29.71,West,272,10.7,13.2,26,0.00,,FEW,-99.99,VWS V12.07,2013-03-21 15:00:00,
2013-03-21 16:10:00,63.7,28.2,29.74,WNW,297,10.7,15.9,26,0.00,,FEW,-99.99,VWS V12.07,2013-03-21 15:10:00,
2013-03-21 16:20:00,63.3,27.9,29.74,WNW,288,13.6,14.1,26,0.00,,FEW,-99.99,VWS V12.07,2013-03-21 15:20:00,
2013-03-21 16:31:00,63.3,27.9,29.74,West,265,6.9,13.2,26,0.00,,FEW,-99.99,VWS V12.07,2013-03-21 15:31:00,
2013-03-21 16:40:00,63.1,27.7,29.74,NW,324,13.2,14.1,26,0.00,,FEW,-99.99,VWS V12.07,2013-03-21 15:40:00,
2013-03-21 16:50:00,63.3,26.9,29.74,NW,321,6.0,11.2,25,0.00,,FEW,-99.99,VWS V12.07,2013-03-21 15:50:00,
2013-03-21 17:00:00,63.1,26.8,29.74,NW,308,6.5,12.1,25,0.00,,FEW,-99.99,VWS V12.07,2013-03-21 16:00:00,
2013-03-21 17:10:00,63.0,26.6,29.74,North,350,8.7,10.7,25,0.00,,FEW,-99.99,VWS V12.07,2013-03-21 16:10:00,
2013-03-21 17:20:00,63.0,27.6,29.74,WNW,298,5.1,10.7,26,0.00,,FEW,-99.99,VWS V12.07,2013-03-21 16:20:00,
2013-03-21 17:30:00,62.6,27.3,29.74,NW,317,7.4,12.1,26,0.00,,FEW,-99.99,VWS V12.07,2013-03-21 16:30:00,
2013-03-21 17:41:00,62.1,27.7,29.74,WNW,292,8.9,10.3,27,0.00,,FEW,-99.99,VWS V12.07,2013-03-21 16:41:00,
2013-03-21 17:50:00,61.5,29.0,29.77,NW,326,8.9,8.9,29,0.00,,FEW,-99.99,VWS V12.07,2013-03-21 16:50:00,
2013-03-21 18:00:00,61.0,30.2,29.77,WNW,300,6.9,8.3,31,0.00,,FEW,-99.99,VWS V12.07,2013-03-21 17:00:00,
2013-03-21 18:10:00,60.3,31.1,29.77,NNW,336,7.4,8.9,33,0.00,,FEW,-99.99,VWS V12.07,2013-03-21 17:10:00,
2013-03-21 18:20:00,59.5,31.2,29.77,NW,322,6.0,8.3,34,0.00,,FEW,-99.99,VWS V12.07,2013-03-21 17:20:00,
2013-03-21 18:30:00,59.4,31.0,29.77,North,357,4.0,8.3,34,0.00,,FEW,-99.99,VWS V12.07,2013-03-21 17:30:00,
2013-03-21 18:41:00,59.0,30.0,29.80,NNW,335,11.2,11.2,33,0.00,,FEW,-99.99,VWS V12.07,2013-03-21 17:41:00,
2013-03-21 18:50:00,58.8,30.5,29.80,NW,317,9.8,11.6,34,0.00,,FEW,-99.99,VWS V12.07,2013-03-21 17:50:00,
2013-03-21 19:00:00,58.5,30.2,29.80,NNW,327,10.7,13.2,34,0.00,,FEW,-99.99,VWS V12.07,2013-03-21 18:00:00,
2013-03-21 19:11:00,58.1,30.6,29.80,NW,314,6.0,9.8,35,0.00,,FEW,-99.99,VWS V12.07,2013-03-21 18:11:00,
2013-03-21 19:21:00,57.9,30.5,29.80,North,1,9.8,13.6,35,0.00,,FEW,-99.99,VWS V12.07,2013-03-21 18:21:00,
2013-03-21 19:30:00,57.6,30.1,29.80,NW,324,5.1,10.3,35,0.00,,FEW,-99.99,VWS V12.07,2013-03-21 18:30:00,
2013-03-21 19:41:00,57.6,30.1,29.83,NNW,338,4.0,8.9,35,0.00,,FEW,-99.99,VWS V12.07,2013-03-21 18:41:00,
2013-03-21 19:50:00,57.0,30.4,29.83,ESE,108,4.7,6.5,36,0.00,,FEW,-99.99,VWS V12.07,2013-03-21 18:50:00,
2013-03-21 20:01:00,56.7,31.4,29.83,ESE,111,3.6,4.7,38,0.00,,FEW,-99.99,VWS V12.07,2013-03-21 19:01:00,
2013-03-21 20:11:00,55.8,31.8,29.83,ENE,58,4.0,4.5,40,0.00,,FEW,-99.99,VWS V12.07,2013-03-21 19:11:00,
2013-03-21 20:21:00,56.1,31.5,29.83,NE,54,6.9,8.7,39,0.00,,FEW,-99.99,VWS V12.07,2013-03-21 19:21:00,
2013-03-21 20:30:00,55.4,30.9,29.83,East,95,5.6,8.3,39,0.00,,FEW,-99.99,VWS V12.07,2013-03-21 19:30:00,
2013-03-21 20:40:00,54.9,31.6,29.85,East,83,4.0,6.5,41,0.00,,SKC,-99.99,VWS V12.07,2013-03-21 19:40:00,
2013-03-21 20:50:00,54.1,31.6,29.88,ENE,60,3.6,4.7,42,0.00,,SKC,-99.99,VWS V12.07,2013-03-21 19:50:00,
2013-03-21 21:00:00,53.8,30.6,29.88,ENE,64,4.0,6.0,41,0.00,,SKC,-99.99,VWS V12.07,2013-03-21 20:00:00,
2013-03-21 21:11:00,53.8,30.6,29.88,SE,125,2.7,3.6,41,0.00,,SKC,-99.99,VWS V12.07,2013-03-21 20:11:00,
2013-03-21 21:20:00,54.0,30.2,29.88,ENE,69,4.7,6.5,40,0.00,,SKC,-99.99,VWS V12.07,2013-03-21 20:20:00,
2013-03-21 21:35:00,54.0,30.8,29.88,East,86,4.5,6.5,41,0.00,,SKC,-99.99,VWS V12.07,2013-03-21 20:35:00,
2013-03-21 21:41:00,54.0,30.8,29.88,NNE,17,3.1,4.0,41,0.00,,SKC,-99.99,VWS V12.07,2013-03-21 20:41:00,
2013-03-21 21:50:00,52.9,31.6,29.88,SSE,161,3.6,4.5,44,0.00,,SKC,-99.99,VWS V12.07,2013-03-21 20:50:00,
2013-03-21 22:00:00,52.9,31.6,29.88,SE,139,0.0,0.0,44,0.00,,SKC,-99.99,VWS V12.07,2013-03-21 21:00:00,
2013-03-21 22:10:00,52.5,31.8,29.88,ESE,107,0.0,0.0,45,0.00,,SKC,-99.99,VWS V12.07,2013-03-21 21:10:00,
2013-03-21 22:21:00,51.8,32.2,29.88,North,357,0.0,3.1,47,0.00,,SKC,-99.99,VWS V12.07,2013-03-21 21:21:00,
2013-03-21 22:31:00,51.1,32.1,29.88,North,8,0.0,0.0,48,0.00,,SKC,-99.99,VWS V12.07,2013-03-21 21:31:00,
2013-03-21 22:41:00,51.4,31.4,29.88,North,11,3.1,3.1,46,0.00,,SKC,-99.99,VWS V12.07,2013-03-21 21:41:00,
2013-03-21 22:50:00,51.6,31.0,29.88,North,10,3.1,3.1,45,0.00,,SKC,-99.99,VWS V12.07,2013-03-21 21:50:00,
2013-03-21 23:00:00,51.6,31.5,29.88,NNE,22,0.0,0.0,46,0.00,,SKC,-99.99,VWS V12.07,2013-03-21 22:00:00,
2013-03-21 23:10:00,51.3,31.7,29.88,North,8,0.0,0.0,47,0.00,,SKC,-99.99,VWS V12.07,2013-03-21 22:10:00,
2013-03-21 23:20:00,50.9,31.4,29.88,North,8,0.0,0.0,47,0.00,,SKC,-99.99,VWS V12.07,2013-03-21 22:20:00,
2013-03-21 23:30:00,51.3,31.7,29.88,NNE,23,4.5,4.5,47,0.00,,SKC,-99.99,VWS V12.07,2013-03-21 22:30:00,
2013-03-21 23:40:00,50.9,30.9,29.88,ENE,66,0.0,2.7,46,0.00,,SKC,-99.99,VWS V12.07,2013-03-21 22:40:00,
2013-03-21 23:50:00,50.7,30.7,29.88,NE,38,3.6,4.5,46,0.00,,SKC,-99.99,VWS V12.07,2013-03-21 22:50:00,